Location: Indian Springs
(36.5700°N, 115.6700°W)
Time: 12:14:21
(UTC-07:00)

Amateur Radio Satellites - All Passes

Search period start: 30 July 2014 11:44
Search period end: 31 July 2014 11:44
Location: Indian Springs, 36.5700°N, 115.6700°W

Satellite Date Start Highest point End Downlink Frequencies (MHz)
Time Altitude Azimuth
SO-50 30 Jul 11:54:26 11:58:51 71° 118° (ESE) 12:03:21 436.795 FM
Oscar 19 30 Jul 12:18:04 12:21:05 16° 64° (ENE) 12:24:06 437.125 CW, 437.150 USB
KITSAT 1 30 Jul 12:31:24 12:32:09 10° 27° (NNE) 12:32:53 435.175 FM
Oscar 16 30 Jul 12:45:03 12:49:29 31° 69° (ENE) 12:53:56 437.025 USB, Beacon 2401.1428
ITAMSAT 1 30 Jul 13:09:47 13:13:52 24° 67° (ENE) 13:17:56 435.822 SSB
JAS-1B 30 Jul 13:20:11 13:27:52 33° 61° (ENE) 13:36:07 435.800 - 435.900 CW/SSB
Uribyol 2 30 Jul 13:28:00 13:32:45 37° 70° (ENE) 13:37:30 436.500 FM
AO-27 30 Jul 13:28:39 13:33:23 36° 70° (ENE) 13:38:08 436.795 MHz FM
SO-50 30 Jul 13:37:37 13:39:55 14° 316° (NW) 13:42:14 436.795 FM
TMSAT-1 30 Jul 13:37:59 13:40:09 13° 62° (ENE) 13:42:19 436.925 FM
RS-15 30 Jul 13:40:10 13:51:22 78° 301° (WNW) 14:02:20 29.354 - 29.394 USB, Beacon 29.352 USB
UOSAT-12 30 Jul 13:46:04 13:50:36 69° 118° (ESE) 13:55:15 437.025 FM, 437.400 FM
Oscar 19 30 Jul 13:54:55 13:59:55 56° 259° (W) 14:04:57 437.125 CW, 437.150 USB
AO-Echo 30 Jul 13:57:41 14:02:57 72° 75° (ENE) 14:08:16 ?
Gurwin Techsat 1B 30 Jul 14:00:42 14:05:14 30° 68° (ENE) 14:09:46 435.225 FM
KITSAT 1 30 Jul 14:22:43 14:30:13 40° 52° (NE) 14:37:39 435.175 FM
Oscar 16 30 Jul 14:24:28 14:28:47 27° 264° (W) 14:33:08 437.025 USB, Beacon 2401.1428
ITAMSAT 1 30 Jul 14:48:17 14:53:06 38° 262° (W) 14:57:56 435.822 SSB
Uribyol 2 30 Jul 15:08:12 15:12:17 23° 265° (W) 15:16:22 436.500 FM
AO-27 30 Jul 15:08:46 15:12:56 24° 265° (W) 15:17:07 436.795 MHz FM
JAS-1B 30 Jul 15:08:53 15:17:33 64° 260° (W) 15:27:19 435.800 - 435.900 CW/SSB
TMSAT-1 30 Jul 15:14:04 15:19:22 77° 257° (WSW) 15:24:41 436.925 FM
Saudisat 1A 30 Jul 15:22:20 15:25:55 24° 50° (NE) 15:29:29 436.775 MHz
UOSAT-12 30 Jul 15:28:37 15:31:15 15° 315° (NW) 15:33:55 437.025 FM, 437.400 FM
AO-7 30 Jul 15:30:42 15:38:37 49° 65° (ENE) 15:46:32 29.400 - 29.500 MHz
AO-Echo 30 Jul 15:40:06 15:42:10 12° 270° (W) 15:44:14 ?
Gurwin Techsat 1B 30 Jul 15:40:26 15:45:05 31° 263° (W) 15:49:45 435.225 FM
Uosat F 30 Jul 15:56:35 16:01:32 61° 74° (ENE) 16:06:31 435.120 FM
RS-15 30 Jul 15:57:28 16:05:46 24° 327° (NNW) 16:14:05 29.354 - 29.394 USB, Beacon 29.352 USB
KITSAT 1 30 Jul 16:18:06 16:25:37 45° 251° (WSW) 16:33:07 435.175 FM
JAS-2 30 Jul 16:49:10 16:54:51 23° 64° (ENE) 17:00:15 435.800 - 435.900 CW/SSB, 435.910 FM
OPAL 30 Jul 16:56:49 17:01:57 87° 106° (ESE) 17:07:06 ?
Saudisat 1A 30 Jul 17:01:36 17:05:31 32° 247° (WSW) 17:09:25 436.775 MHz
JAS-1B 30 Jul 17:08:21 17:09:54 10° 279° (W) 17:11:27 435.800 - 435.900 CW/SSB
Hamsat 30 Jul 17:11:17 17:14:32 22° 70° (ENE) 17:17:49 145.90 MHz
AO-7 30 Jul 17:24:08 17:31:30 34° 262° (W) 17:38:55 29.400 - 29.500 MHz
Uosat F 30 Jul 17:38:22 17:40:41 13° 268° (W) 17:43:00 435.120 FM
RS-15 30 Jul 18:19:27 18:24:12 13° 4° (N) 18:28:58 29.354 - 29.394 USB, Beacon 29.352 USB
JAS-2 30 Jul 18:31:27 18:39:16 71° 258° (WSW) 18:46:36 435.800 - 435.900 CW/SSB, 435.910 FM
OPAL 30 Jul 18:38:54 18:40:05 11° 301° (WNW) 18:41:16 ?
Hamsat 30 Jul 18:46:55 18:50:22 25° 264° (W) 18:53:52 145.90 MHz
STRAND 1 30 Jul 19:23:08 19:28:13 68° 102° (ESE) 19:33:16 ?
SO-67 30 Jul 19:30:20 19:33:40 45° 261° (W) 19:37:01 435.3500 MHz FM
HO-68 30 Jul 19:56:12 20:02:20 32° 64° (ENE) 20:08:27 435.675 MHz FM
JAS-2 30 Jul 20:23:52 20:25:05 10° 272° (W) 20:26:17 435.800 - 435.900 CW/SSB, 435.910 FM
SO-50 30 Jul 20:28:26 20:32:47 34° 53° (NE) 20:37:09 436.795 FM
RS-15 30 Jul 20:32:48 20:42:02 29° 39° (NE) 20:51:27 29.354 - 29.394 USB, Beacon 29.352 USB
MaSat-1 30 Jul 20:46:47 20:50:45 87° 294° (WNW) 20:55:26 437.345 MHz
STRAND 1 30 Jul 21:04:24 21:06:48 13° 298° (WNW) 21:09:11 ?
UKube-1 30 Jul 21:09:26 21:13:46 72° 75° (ENE) 21:18:08 145.840 MHz, 145.915 MHz
ISS 30 Jul 21:23:50 21:25:48 15° 128° (SE) 21:27:47 145.800 FM
HO-68 30 Jul 21:42:56 21:49:44 46° 260° (W) 21:56:35 435.675 MHz FM
Oscar 11 30 Jul 21:52:29 21:56:46 76° 258° (WSW) 22:01:05 145.825 FM, Beacon 2401.500 USB
SO-50 30 Jul 22:09:15 22:13:12 26° 248° (WSW) 22:17:10 436.795 FM
UOSAT-12 30 Jul 22:18:18 22:22:31 31° 52° (NE) 22:26:40 437.025 FM, 437.400 FM
FUNcube-1 30 Jul 22:19:39 22:23:58 77° 76° (ENE) 22:28:13 145.950 - 145.970 MHz USB
RS-15 30 Jul 22:44:38 22:55:45 85° 243° (WSW) 23:07:19 29.354 - 29.394 USB, Beacon 29.352 USB
PCSat 30 Jul 22:57:13 23:00:39 17° 104° (ESE) 23:04:06 145.825 MHz
ISS 30 Jul 22:59:00 23:02:13 46° 323° (NW) 23:05:28 145.800 FM
Oscar 10/S400 30 Jul 23:04:52 23:28:55 70° 171° (S) 08:50:18 145.825 - 145.975 CW/USB, Beacon 145.810 USB
UOSAT-12 30 Jul 23:58:35 00:02:33 27° 248° (WSW) 00:06:27 437.025 FM, 437.400 FM
Sapphire 31 Jul 00:04:58 00:10:19 70° 114° (ESE) 00:15:43 437.095 MHz 1200 baud AX-25 AFSK
PCSat 31 Jul 00:38:16 00:43:33 55° 300° (WNW) 00:48:53 145.825 MHz
ISS 31 Jul 00:39:02 00:39:37 10° 341° (NNW) 00:40:12 145.800 FM
RS-15 31 Jul 01:00:00 01:06:29 18° 260° (W) 01:13:09 29.354 - 29.394 USB, Beacon 29.352 USB
Oscar 16 31 Jul 01:00:47 01:03:03 13° 91° (E) 01:05:19 437.025 USB, Beacon 2401.1428
Uribyol 2 31 Jul 01:44:25 01:47:29 16° 93° (E) 01:50:33 436.500 FM
AO-27 31 Jul 01:45:25 01:48:26 16° 93° (E) 01:51:26 436.795 MHz FM
Sapphire 31 Jul 01:50:51 01:54:16 17° 312° (NW) 01:57:43 437.095 MHz 1200 baud AX-25 AFSK
AO-Echo 31 Jul 02:08:28 02:12:42 27° 95° (E) 02:16:47 ?
Oscar 19 31 Jul 02:08:51 02:13:59 63° 101° (ESE) 02:19:07 437.125 CW, 437.150 USB
Gurwin Techsat 1B 31 Jul 02:20:41 02:23:19 14° 91° (E) 02:25:57 435.225 FM
OPAL 31 Jul 02:34:07 02:36:18 13° 60° (ENE) 02:38:28 ?
Oscar 16 31 Jul 02:37:41 02:42:48 65° 286° (WNW) 02:47:55 437.025 USB, Beacon 2401.1428
JAS-1B 31 Jul 02:59:05 03:08:00 56° 98° (E) 03:15:29 435.800 - 435.900 CW/SSB
ITAMSAT 1 31 Jul 03:03:14 03:08:25 87° 284° (WNW) 03:13:35 435.822 SSB
Uribyol 2 31 Jul 03:22:14 03:27:15 53° 287° (WNW) 03:32:14 436.500 FM
AO-27 31 Jul 03:23:12 03:28:15 54° 287° (WNW) 03:33:16 436.795 MHz FM
PANSAT 31 Jul 03:32:12 03:34:43 17° 166° (SSE) 03:37:14 not established
TMSAT-1 31 Jul 03:32:33 03:37:43 53° 100° (E) 03:42:51 436.925 FM
AO-7 31 Jul 03:37:03 03:41:56 17° 92° (E) 03:46:46 29.400 - 29.500 MHz
AO-Echo 31 Jul 03:47:07 03:51:24 29° 291° (WNW) 03:55:33 ?
Oscar 19 31 Jul 03:50:00 03:52:46 15° 297° (WNW) 03:55:32 437.125 CW, 437.150 USB
ISS 31 Jul 03:54:13 03:55:47 13° 22° (NNE) 03:57:22 145.800 FM
Gurwin Techsat 1B 31 Jul 03:58:26 04:03:41 63° 286° (WNW) 04:08:54 435.225 FM
Uosat F 31 Jul 04:07:35 04:11:31 23° 95° (E) 04:15:24 435.120 FM
OPAL 31 Jul 04:09:39 04:14:34 69° 256° (WSW) 04:19:31 ?
KITSAT 1 31 Jul 04:48:30 04:55:40 36° 108° (ESE) 05:02:51 435.175 FM
JAS-1B 31 Jul 04:50:07 04:57:53 32° 299° (WNW) 05:04:43 435.800 - 435.900 CW/SSB
MaSat-1 31 Jul 05:08:28 05:11:49 17° 52° (NE) 05:15:04 437.345 MHz
PANSAT 31 Jul 05:11:12 05:14:23 24° 179° (S) 05:17:33 not established
TMSAT-1 31 Jul 05:13:43 05:17:11 18° 295° (WNW) 05:20:38 436.925 FM
AO-7 31 Jul 05:27:12 05:35:34 87° 288° (WNW) 05:43:51 29.400 - 29.500 MHz
ISS 31 Jul 05:29:39 05:33:01 71° 40° (NE) 05:36:21 145.800 FM
Uosat F 31 Jul 05:45:48 05:50:20 35° 290° (WNW) 05:54:51 435.120 FM
JAS-2 31 Jul 05:47:10 05:50:19 15° 90° (E) 05:53:20 435.800 - 435.900 CW/SSB, 435.910 FM
Hamsat 31 Jul 06:34:06 06:38:24 66° 101° (E) 06:42:43 145.90 MHz
STRAND 1 31 Jul 06:36:31 06:41:39 76° 75° (ENE) 06:46:48 ?
KITSAT 1 31 Jul 06:43:05 06:50:49 48° 305° (NW) 06:58:36 435.175 FM
MaSat-1 31 Jul 06:44:28 06:49:41 65° 250° (WSW) 06:54:28 437.345 MHz
PANSAT 31 Jul 06:51:16 06:54:03 19° 191° (SSW) 06:56:50 not established
SO-67 31 Jul 06:57:54 06:59:43 14° 93° (E) 07:01:32 435.3500 MHz FM
Saudisat 1A 31 Jul 07:05:07 07:09:31 71° 301° (WNW) 07:13:57 436.775 MHz
AO-7 31 Jul 07:22:03 07:27:10 18° 307° (NW) 07:32:17 29.400 - 29.500 MHz
JAS-2 31 Jul 07:30:21 07:35:58 56° 288° (WNW) 07:41:06 435.800 - 435.900 CW/SSB, 435.910 FM
PCSat 31 Jul 07:48:28 07:49:32 11° 43° (NE) 07:50:36 145.825 MHz
Hamsat 31 Jul 08:13:23 08:13:47 10° 295° (WNW) 08:14:12 145.90 MHz
STRAND 1 31 Jul 08:20:19 08:21:20 11° 270° (W) 08:22:21 ?
SO-67 31 Jul 08:29:50 08:32:49 27° 287° (WNW) 08:35:46 435.3500 MHz FM
KITSAT 1 31 Jul 08:45:40 08:48:32 12° 330° (NNW) 08:51:24 435.175 FM
Sapphire 31 Jul 08:55:42 09:00:36 34° 56° (NE) 09:05:28 437.095 MHz 1200 baud AX-25 AFSK
UKube-1 31 Jul 09:01:46 09:04:12 15° 93° (E) 09:06:37 145.840 MHz, 145.915 MHz
HO-68 31 Jul 09:13:07 09:19:46 40° 99° (E) 09:26:21 435.675 MHz FM
PCSat 31 Jul 09:28:31 09:33:57 69° 62° (ENE) 09:39:20 145.825 MHz
Oscar 11 31 Jul 09:43:12 09:46:40 23° 95° (E) 09:50:08 145.825 FM, Beacon 2401.500 USB
FUNcube-1 31 Jul 10:12:19 10:15:03 17° 94° (E) 10:17:49 145.950 - 145.970 MHz USB
UKube-1 31 Jul 10:36:28 10:40:34 41° 288° (WNW) 10:44:39 145.840 MHz, 145.915 MHz
Sapphire 31 Jul 10:39:13 10:43:54 30° 252° (WSW) 10:48:33 437.095 MHz 1200 baud AX-25 AFSK
SO-50 31 Jul 10:42:36 10:45:32 17° 109° (ESE) 10:48:29 436.795 FM
RS-15 31 Jul 10:58:38 11:04:43 17° 99° (E) 11:10:42 29.354 - 29.394 USB, Beacon 29.352 USB
HO-68 31 Jul 11:00:58 11:07:18 36° 295° (WNW) 11:13:37 435.675 MHz FM
PCSat 31 Jul 11:14:08 11:16:42 14° 257° (WSW) 11:19:15 145.825 MHz
Oscar 11 31 Jul 11:19:09 11:22:47 26° 290° (WNW) 11:26:24 145.825 FM, Beacon 2401.500 USB
